EW8484 Weather Reports


Display with metric or nautical units.
time (UTC)temp
F
wind
direction
speed
MPH
gust
MPH
rain 1hr
in
rain 24hr
in
rain mn
in
humidity
%
barometer
mb
20260506174027 62 221 1.0 4.0 0.01 0.01 0.01 59 1009.3
20260506173527 62 181 1.0 3.0 0.01 0.01 0.01 60 1009.4
20260506173047 63 176 2.0 4.0 0.00 0.00 0.00 60 1009.6
20260506172527 64 171 1.0 4.0 0.00 0.00 0.00 60 1009.8
20260506172027 64 184 2.0 7.0 0.00 0.00 0.00 59 1010.0
20260506171527 65 168 2.0 8.0 0.00 0.00 0.00 58 1009.9
20260506171027 65 161 2.0 4.0 0.00 0.00 0.00 57 1009.8
20260506170527 66 191 2.0 5.0 0.00 0.00 0.00 57 1009.8
20260506170038 66 202 2.0 4.0 0.00 0.00 0.00 55 1009.6
20260506165607 67 193 3.0 7.0 0.00 0.00 0.00 54 1009.6
20260506165047 68 219 2.0 5.0 0.00 0.00 0.00 53 1009.5
20260506164608 68 183 3.0 6.0 0.00 0.00 0.00 52 1009.4
20260506164027 68 165 3.0 8.0 0.00 0.00 0.00 52 1009.4
20260506163528 68 174 4.0 11.0 0.00 0.00 0.00 52 1009.3
20260506163027 68 154 3.0 5.0 0.00 0.00 0.00 52 1009.6
20260506162528 68 186 3.0 7.0 0.00 0.00 0.00 52 1009.6
20260506162027 68 180 3.0 10.0 0.00 0.00 0.00 52 1009.8
20260506161527 68 180 3.0 6.0 0.00 0.00 0.00 52 1009.9
20260506161027 68 160 3.0 7.0 0.00 0.00 0.00 53 1009.9
20260506160547 67 181 2.0 4.0 0.00 0.00 0.00 53 1010.0
20260506160027 67 191 2.0 4.0 0.00 0.00 0.00 53 1010.1
20260506155547 67 142 1.0 2.0 0.00 0.00 0.00 53 1010.2
20260506155026 67 208 2.0 6.0 0.00 0.00 0.00 53 1010.2
20260506154527 67 220 2.0 6.0 0.00 0.00 0.00 53 1010.2
20260506154027 67 203 2.0 4.0 0.00 0.00 0.00 54 1010.3
20260506153527 67 146 2.0 4.0 0.00 0.00 0.00 53 1010.3
20260506153027 67 205 1.0 3.0 0.00 0.00 0.00 53 1010.3
20260506152547 66 192 2.0 4.0 0.00 0.00 0.00 53 1010.3
20260506152027 66 174 2.0 6.0 0.00 0.00 0.00 54 1010.4
20260506151547 66 171 2.0 6.0 0.00 0.00 0.00 53 1010.5
20260506151027 65 145 1.0 3.0 0.00 0.00 0.00 54 1010.5
20260506150527 65 246 2.0 3.0 0.00 0.00 0.00 54 1010.6
20260506150027 65 223 1.0 8.0 0.00 0.00 0.00 54 1010.7
20260506145527 65 225 1.0 4.0 0.00 0.00 0.00 53 1010.6
20260506145027 65 173 2.0 5.0 0.00 0.00 0.00 54 1010.5
20260506144547 65 177 1.0 3.0 0.00 0.00 0.00 54 1010.6
20260506144026 65 159 1.0 3.0 0.00 0.00 0.00 54 1010.8
20260506143526 65 231 1.0 4.0 0.00 0.00 0.00 54 1010.8
20260506143026 64 191 3.0 7.0 0.00 0.00 0.00 54 1010.7
20260506142526 64 183 2.0 4.0 0.00 0.00 0.00 54 1010.8
20260506142027 64 207 2.0 5.0 0.00 0.00 0.00 54 1010.7
20260506141527 64 189 3.0 9.0 0.00 0.00 0.00 54 1010.7
20260506141027 65 253 4.0 10.0 0.00 0.00 0.00 53 1010.9
20260506140527 65 197 1.0 4.0 0.00 0.00 0.00 54 1010.8
20260506140027 64 196 2.0 5.0 0.00 0.00 0.00 53 1010.7
20260506135527 64 185 2.0 5.0 0.00 0.00 0.00 53 1010.6
20260506135026 64 189 3.0 6.0 0.00 0.00 0.00 53 1010.7
20260506134527 64 179 2.0 8.0 0.00 0.00 0.00 53 1010.5
20260506134027 64 209 2.0 5.0 0.00 0.00 0.00 53 1010.7
20260506133527 64 186 1.0 3.0 0.00 0.00 0.00 53 1010.4
20260506133027 63 160 1.0 4.0 0.00 0.00 0.00 52 1010.6
20260506132527 63 178 1.0 5.0 0.00 0.00 0.00 52 1010.6
20260506132027 63 186 2.0 5.0 0.00 0.00 0.00 52 1010.7
20260506131527 63 177 1.0 3.0 0.00 0.00 0.00 53 1010.7
20260506131027 63 183 2.0 4.0 0.00 0.00 0.00 53 1010.7
20260506130527 63 184 2.0 5.0 0.00 0.00 0.00 52 1010.6
20260506130027 62 179 2.0 7.0 0.00 0.00 0.00 52 1010.8
20260506125527 62 176 2.0 5.0 0.00 0.00 0.00 52 1010.8
20260506125027 62 174 1.0 5.0 0.00 0.00 0.00 52 1011.0
20260506124527 62 166 2.0 4.0 0.00 0.00 0.00 52 1010.9
20260506124026 62 197 1.0 6.0 0.00 0.00 0.00 52 1011.1
20260506123526 62 193 2.0 4.0 0.00 0.00 0.00 52 1011.2
20260506123026 62 223 2.0 6.0 0.00 0.00 0.00 52 1011.2
20260506122526 62 122 1.0 7.0 0.00 0.00 0.00 53 1011.3
20260506122047 62 189 2.0 4.0 0.00 0.00 0.00 52 1011.0
20260506121527 62 162 1.0 5.0 0.00 0.00 0.00 52 1010.8
20260506121027 62 191 2.0 6.0 0.00 0.00 0.00 52 1011.1
20260506120526 62 210 2.0 4.0 0.00 0.00 0.00 51 1011.1
20260506120027 62 229 2.0 7.0 0.00 0.00 0.00 51 1010.8
20260506115526 62 196 2.0 5.0 0.00 0.00 0.00 51 1011.0
20260506115026 62 188 2.0 5.0 0.00 0.00 0.00 51 1011.1
20260506114527 62 167 2.0 5.0 0.00 0.00 0.00 50 1011.3
20260506114046 61 259 2.0 5.0 0.00 0.00 0.00 50 1011.2
20260506113546 61 184 2.0 8.0 0.00 0.00 0.00 49 1011.1
20260506113027 61 184 2.0 4.0 0.00 0.00 0.00 48 1011.0
20260506112526 61 172 2.0 5.0 0.00 0.00 0.00 47 1011.0
20260506112026 60 178 2.0 9.0 0.00 0.00 0.00 47 1010.9
20260506111607 60 160 1.0 4.0 0.00 0.00 0.00 46 1011.5
20260506111026 60 199 2.0 7.0 0.00 0.00 0.00 45 1011.5
20260506110526 59 232 1.0 3.0 0.00 0.00 0.00 45 1011.5
20260506110026 59 285 1.0 3.0 0.00 0.00 0.00 45 1011.5
20260506105526 59 210 2.0 7.0 0.00 0.00 0.00 45 1011.4
20260506105026 59 0.0 3.0 0.00 0.00 0.00 44 1011.4
20260506104546 58 183 1.0 3.0 0.00 0.00 0.00 44 1011.4
20260506104046 58 0.0 2.0 0.00 0.00 0.00 44 1011.4
20260506103526 58 181 1.0 3.0 0.00 0.00 0.00 44 1011.3
20260506103047 58 184 1.0 2.0 0.00 0.00 0.00 45 1011.1
20260506102526 58 178 1.0 3.0 0.00 0.00 0.00 45 1011.2
20260506102026 57 187 1.0 4.0 0.00 0.00 0.00 45 1011.0
20260506101526 57 217 1.0 4.0 0.00 0.00 0.00 45 1011.1
20260506101026 57 200 1.0 3.0 0.00 0.00 0.00 47 1011.1
20260506100526 57 0.0 0.0 0.00 0.00 0.00 47 1011.1
20260506100026 57 0.0 0.0 0.00 0.00 0.00 47 1010.9
20260506095526 57 0.0 0.0 0.00 0.00 0.00 47 1011.0
20260506095026 57 0.0 0.0 0.00 0.00 0.00 48 1011.1
20260506094526 57 0.0 1.0 0.00 0.00 0.00 47 1011.2
20260506094026 57 240 1.0 4.0 0.00 0.00 0.00 47 1011.2
20260506093526 57 0.0 3.0 0.00 0.00 0.00 47 1011.1
20260506093046 57 0.0 3.0 0.00 0.00 0.00 47 1011.1
20260506092526 57 282 1.0 6.0 0.00 0.00 0.00 47 1011.0
20260506092026 57 0.0 2.0 0.00 0.00 0.00 47 1011.1
20260506091526 57 0.0 1.0 0.00 0.00 0.00 47 1011.2
20260506091026 57 250 1.0 4.0 0.00 0.00 0.00 47 1011.2
20260506090526 57 274 1.0 4.0 0.00 0.00 0.00 47 1011.2
20260506090026 57 229 1.0 4.0 0.00 0.00 0.00 48 1011.2
20260506085526 57 170 1.0 4.0 0.00 0.00 0.00 48 1011.1
20260506085026 57 236 1.0 5.0 0.00 0.00 0.00 48 1011.2
20260506084526 57 132 1.0 3.0 0.00 0.00 0.00 48 1011.3
20260506084026 57 0.0 1.0 0.00 0.00 0.00 49 1011.3
20260506083526 57 0.0 3.0 0.00 0.00 0.00 50 1011.3
20260506083046 57 0.0 2.0 0.00 0.00 0.00 50 1011.3
20260506082526 57 0.0 2.0 0.00 0.00 0.00 50 1011.4
20260506082026 57 219 1.0 3.0 0.00 0.00 0.00 51 1011.4
20260506081526 57 240 1.0 5.0 0.00 0.00 0.00 51 1011.5
20260506081026 57 128 1.0 2.0 0.00 0.00 0.00 52 1011.6
20260506080526 57 177 1.0 5.0 0.00 0.00 0.00 52 1011.5
20260506073046 57 238 1.0 4.0 0.00 0.00 0.00 55 1011.4
20260506072525 57 0.0 2.0 0.00 0.00 0.00 56 1011.6
20260506072026 57 291 1.0 3.0 0.00 0.00 0.00 58 1011.5
20260506071526 58 0.0 1.0 0.00 0.00 0.00 59 1011.4
20260506071046 58 0.0 2.0 0.00 0.00 0.00 61 1011.4
20260506070526 58 300 1.0 4.0 0.00 0.00 0.00 61 1011.6
20260506062026 60 199 2.0 6.0 0.00 0.00 0.00 61 1011.1
20260506061526 61 180 1.0 9.0 0.00 0.00 0.00 61 1011.1
20260506061025 61 237 1.0 3.0 0.00 0.00 0.00 60 1011.2
20260506060526 61 218 1.0 4.0 0.00 0.00 0.00 60 1011.2
20260506060106 62 186 2.0 5.0 0.00 0.00 0.00 59 1011.2
20260506051026 63 170 2.0 5.0 0.00 0.00 0.00 55 1011.3
20260506050526 63 185 2.0 6.0 0.00 0.00 0.00 55 1011.4
20260506045025 63 192 2.0 6.0 0.00 0.00 0.00 54 1011.2
20260506044526 63 161 1.0 6.0 0.00 0.00 0.00 54 1011.2
20260506044025 63 175 2.0 6.0 0.00 0.00 0.00 54 1011.3
20260506043526 63 198 2.0 6.0 0.00 0.00 0.00 54 1011.2
20260506043026 63 185 1.0 6.0 0.00 0.00 0.00 54 1011.3
20260506042525 63 198 2.0 4.0 0.00 0.00 0.00 54 1011.3
20260506042025 63 199 2.0 5.0 0.00 0.00 0.00 54 1011.2
20260506041526 63 192 1.0 4.0 0.00 0.00 0.00 54 1011.3
20260506041025 63 188 1.0 4.0 0.00 0.00 0.00 54 1011.4
20260506040526 63 138 2.0 8.0 0.00 0.00 0.00 54 1011.5
20260506040025 63 174 2.0 6.0 0.00 0.00 0.00 54 1011.5
20260506035526 63 191 1.0 4.0 0.00 0.00 0.00 54 1011.5
20260506035046 63 231 1.0 2.0 0.00 0.00 0.00 54 1011.5
20260506034546 63 172 2.0 3.0 0.00 0.00 0.00 53 1011.6
20260506034025 63 207 1.0 3.0 0.00 0.00 0.00 53 1011.7
20260506033526 63 213 1.0 5.0 0.00 0.00 0.00 52 1011.6
20260506033025 64 192 2.0 4.0 0.00 0.00 0.00 52 1011.7
20260506032526 64 189 1.0 3.0 0.00 0.00 0.00 52 1011.6
20260506032026 64 173 2.0 6.0 0.00 0.00 0.00 52 1011.8
20260506031525 64 168 2.0 6.0 0.00 0.00 0.00 52 1011.7
20260506031046 64 233 1.0 4.0 0.00 0.00 0.00 52 1011.8
20260506030525 64 185 1.0 4.0 0.00 0.00 0.00 52 1011.7
20260506030025 64 173 1.0 5.0 0.00 0.00 0.00 52 1011.6
20260506025525 64 176 2.0 5.0 0.00 0.00 0.00 52 1011.5
20260506025026 64 183 1.0 6.0 0.00 0.00 0.00 51 1011.5
20260506024526 64 211 1.0 4.0 0.00 0.00 0.00 51 1011.6
20260506024025 64 182 2.0 5.0 0.00 0.00 0.00 52 1011.5
20260506023525 64 200 1.0 3.0 0.00 0.00 0.00 52 1011.4
20260506023025 64 178 2.0 5.0 0.00 0.00 0.00 51 1011.4
20260506022525 63 169 1.0 4.0 0.00 0.00 0.00 51 1011.4
20260506022025 63 181 2.0 5.0 0.00 0.00 0.00 51 1011.3
20260506021526 64 177 1.0 4.0 0.00 0.00 0.00 51 1011.4
20260506021025 64 188 1.0 4.0 0.00 0.00 0.00 51 1011.4
20260506020546 63 193 2.0 5.0 0.00 0.00 0.00 51 1011.4
20260506020028 64 280 1.0 3.0 0.00 0.00 0.00 51 1011.4
20260506015525 64 100 1.0 2.0 0.00 0.00 0.00 51 1011.4
20260506015026 64 95 1.0 3.0 0.00 0.00 0.00 50 1011.3
20260506014546 64 162 2.0 7.0 0.00 0.00 0.00 50 1011.4
20260506014025 64 177 1.0 4.0 0.00 0.00 0.00 49 1011.3
20260506013526 65 163 1.0 4.0 0.00 0.00 0.00 49 1011.2
20260506013025 65 182 2.0 9.0 0.00 0.00 0.00 49 1011.2
20260506012527 65 166 1.0 5.0 0.00 0.00 0.00 49 1011.0
20260506012025 65 171 1.0 4.0 0.00 0.00 0.00 49 1011.1
20260506011525 66 166 2.0 4.0 0.00 0.00 0.00 48 1010.9
20260506011025 66 226 1.0 3.0 0.00 0.00 0.00 48 1010.7
20260506010526 66 198 2.0 7.0 0.00 0.00 0.00 48 1010.7
20260506010105 66 165 2.0 5.0 0.00 0.00 0.00 48 1010.7
20260506005526 67 137 2.0 6.0 0.00 0.00 0.00 48 1010.6
20260506005026 67 181 1.0 6.0 0.00 0.00 0.00 47 1010.6
20260506004525 67 191 2.0 4.0 0.00 0.00 0.00 47 1010.6
20260506004026 67 201 2.0 3.0 0.00 0.00 0.00 47 1010.5
20260506003527 67 174 3.0 7.0 0.00 0.00 0.00 46 1010.4
20260506003025 68 159 2.0 4.0 0.00 0.00 0.00 46 1010.3
20260506002528 68 219 3.0 8.0 0.00 0.00 0.00 45 1010.2
20260506002027 68 207 2.0 8.0 0.00 0.00 0.00 46 1010.2
20260506001548 68 211 1.0 3.0 0.00 0.00 0.00 45 1010.0
20260506001027 69 185 2.0 5.0 0.00 0.00 0.00 46 1010.0
20260506000527 69 212 3.0 8.0 0.00 0.00 0.00 44 1009.9
20260506000048 69 193 2.0 7.0 0.00 0.00 0.00 44 1009.8
20260505235547 69 187 3.0 11.0 0.00 0.00 0.00 44 1009.6
20260505235108 69 203 2.0 7.0 0.00 0.00 0.00 43 1009.6
20260505234527 70 185 2.0 6.0 0.00 0.00 0.00 44 1009.5
20260505234027 70 222 2.0 6.0 0.00 0.00 0.00 42 1009.4
20260505233527 70 193 2.0 9.0 0.00 0.00 0.00 42 1009.3
20260505233027 70 178 4.0 14.0 0.00 0.00 0.00 42 1009.2
20260505232527 70 184 1.0 4.0 0.00 0.00 0.00 42 1009.1
20260505232027 71 221 2.0 8.0 0.00 0.00 0.00 42 1009.1
20260505231527 71 221 2.0 4.0 0.00 0.00 0.00 41 1009.0
20260505231027 71 240 2.0 6.0 0.00 0.00 0.00 40 1009.0
20260505230527 72 183 3.0 10.0 0.00 0.00 0.00 39 1008.9
20260505230047 72 214 3.0 9.0 0.00 0.00 0.00 40 1008.7
20260505225527 72 209 2.0 5.0 0.00 0.00 0.00 39 1008.9
20260505225047 72 222 3.0 11.0 0.00 0.00 0.00 39 1008.8
20260505224527 73 207 2.0 5.0 0.00 0.00 0.00 39 1008.6
20260505224027 73 208 2.0 5.0 0.00 0.00 0.00 38 1008.6
20260505223628 73 204 3.0 6.0 0.00 0.00 0.00 38 1008.6
20260505223027 73 186 3.0 9.0 0.00 0.00 0.00 37 1008.5
20260505222527 74 186 4.0 9.0 0.00 0.00 0.00 37 1008.4
20260505222027 74 181 3.0 5.0 0.00 0.00 0.00 37 1008.5
20260505221527 75 189 2.0 7.0 0.00 0.00 0.00 37 1008.4
20260505221027 75 204 3.0 7.0 0.00 0.00 0.00 37 1008.2
20260505220527 75 200 3.0 7.0 0.00 0.00 0.00 37 1008.3
20260505220027 75 202 2.0 10.0 0.00 0.00 0.00 36 1008.2
20260505215527 75 182 3.0 9.0 0.00 0.00 0.00 36 1008.2
20260505215027 76 184 2.0 5.0 0.00 0.00 0.00 37 1008.1
20260505214527 76 193 3.0 7.0 0.00 0.00 0.00 36 1008.1
20260505214027 76 188 3.0 9.0 0.00 0.00 0.00 35 1008.1
20260505213527 76 184 4.0 10.0 0.00 0.00 0.00 35 1008.2
20260505213027 76 189 3.0 8.0 0.00 0.00 0.00 34 1008.3
20260505212527 76 209 3.0 10.0 0.00 0.00 0.00 35 1008.4
20260505212027 77 180 4.0 10.0 0.00 0.00 0.00 34 1008.3
20260505211527 77 201 4.0 12.0 0.00 0.00 0.00 34 1008.2
20260505211017 77 203 3.0 7.0 0.00 0.00 0.00 34 1008.1
20260505210527 77 179 3.0 8.0 0.00 0.00 0.00 34 1008.2
20260505210027 78 213 3.0 8.0 0.00 0.00 0.00 34 1008.0
20260505205527 78 193 3.0 10.0 0.00 0.00 0.00 32 1008.0
20260505205027 78 191 3.0 7.0 0.00 0.00 0.00 32 1007.9
20260505204527 78 200 3.0 6.0 0.00 0.00 0.00 33 1007.9
20260505204026 78 185 4.0 9.0 0.00 0.00 0.00 32 1007.9
20260505203527 79 213 3.0 7.0 0.00 0.00 0.00 30 1007.9
20260505203027 79 190 4.0 8.0 0.00 0.00 0.00 31 1007.8
20260505202527 80 194 4.0 8.0 0.00 0.00 0.00 31 1007.9
20260505202027 80 185 4.0 11.0 0.00 0.00 0.00 31 1007.9
20260505201527 80 179 3.0 9.0 0.00 0.00 0.00 30 1008.0
20260505201027 80 187 3.0 7.0 0.00 0.00 0.00 30 1007.9
20260505200527 80 200 4.0 15.0 0.00 0.00 0.00 29 1008.1
20260505200027 81 185 5.0 15.0 0.00 0.00 0.00 29 1008.0
20260505195526 81 213 3.0 7.0 0.00 0.00 0.00 29 1007.9
20260505195027 81 193 4.0 12.0 0.00 0.00 0.00 28 1007.9
20260505194527 81 208 5.0 13.0 0.00 0.00 0.00 28 1007.9
20260505194027 81 196 4.0 9.0 0.00 0.00 0.00 28 1008.0
20260505193527 81 183 3.0 7.0 0.00 0.00 0.00 34 1007.9
20260505193047 81 216 4.0 9.0 0.00 0.00 0.00 29 1007.9
20260505192526 81 197 3.0 8.0 0.00 0.00 0.00 30 1007.9
20260505192027 81 179 3.0 7.0 0.00 0.00 0.00 29 1008.1
20260505191527 82 187 4.0 7.0 0.00 0.00 0.00 27 1008.4
20260505191027 82 185 4.0 8.0 0.00 0.00 0.00 28 1008.3
20260505190527 82 217 3.0 9.0 0.00 0.00 0.00 29 1008.3
20260505190047 81 199 5.0 13.0 0.00 0.00 0.00 28 1008.3
20260505185527 81 195 4.0 14.0 0.00 0.00 0.00 29 1008.4
20260505185027 82 188 3.0 12.0 0.00 0.00 0.00 29 1008.4
20260505184547 82 184 4.0 9.0 0.00 0.00 0.00 30 1008.6
20260505184027 82 187 2.0 5.0 0.00 0.00 0.00 34 1008.7
20260505183526 82 180 3.0 6.0 0.00 0.00 0.00 30 1008.6
20260505183027 81 181 3.0 6.0 0.00 0.00 0.00 31 1008.7
20260505182527 81 189 4.0 9.0 0.00 0.00 0.00 31 1008.8
20260505182027 81 186 3.0 6.0 0.00 0.00 0.00 32 1009.0
20260505181526 81 184 4.0 10.0 0.00 0.00 0.00 31 1008.8
20260505181047 81 175 3.0 9.0 0.00 0.00 0.00 31 1008.9
20260505180527 81 193 4.0 9.0 0.00 0.00 0.00 30 1009.0
20260505180027 81 197 4.0 10.0 0.00 0.00 0.00 29 1009.1
20260505175526 82 194 3.0 9.0 0.00 0.00 0.00 29 1009.1
20260505175026 81 253 3.0 6.0 0.00 0.00 0.00 30 1009.1
20260505174547 81 194 4.0 9.0 0.00 0.00 0.00 32 1009.0